Location: Arboyeti
(42.1122°N, 44.6017°E)
Time: 21:07:19
(UTC+00:00)

CZ-2C R/B - Pass Details

Date: 19 April 2021
Orbit: 784 x 871 km, 98.2° (Epoch: 18 May)

Event Time Altitude Azimuth Distance (km) Brightness Sun altitude
Rises 16:48:18 0° 4° (N) 3,287 6.1 -11.3°
Reaches altitude 10° 16:50:47 10° 356° (N) 2,358 5.5 -11.7°
Maximum altitude 16:55:27 35° 292° (WNW) 1,258 4.4 -12.5°
Drops below altitude 10° 17:00:11 10° 227° (SW) 2,377 5.3 -13.3°
Sets 17:02:41 0° 219° (SW) 3,316 5.9 -13.7°
